Location: Nickerson Gardens
(33.9320°N, 118.2484°W)
Time: 17:37:12
(UTC+00:00)

CAS-4A - Visible Passes

Search period start: 23 April 2021 00:00
Search period end: 03 May 2021 00:00
Orbit: 529 x 542 km, 43.0° (Epoch: 23 April)

Date Brightness Start Highest point End Pass type
(mag) Time Alt. Az. Time Alt. Az. Time Alt. Az.
23 Apr ? 04:24:58 10° SW 04:26:15 19° SSW 04:26:15 19° SSW visible
23 Apr ? 11:12:55 32° SE 11:12:55 32° SE 11:15:13 10° SE visible
24 Apr ? 04:14:07 10° SW 04:17:51 59° S 04:17:51 59° S visible
24 Apr ? 11:04:24 10° SE 11:04:24 10° SE 11:04:24 10° SE visible
25 Apr ? 04:03:20 10° SW 04:07:28 80° SSE 04:09:07 35° ENE visible
25 Apr ? 05:44:14 10° WNW 05:44:32 12° WNW 05:44:32 12° WNW visible
26 Apr ? 03:52:37 10° WSW 03:56:45 81° NNW 04:00:01 16° ENE visible
26 Apr ? 05:33:44 10° WNW 05:35:24 19° NW 05:35:24 19° NW visible
27 Apr ? 03:41:58 10° WSW 03:46:03 65° NNW 03:50:09 10° NE visible
27 Apr ? 05:23:14 10° WNW 05:25:56 24° NNW 05:25:56 24° NNW visible
28 Apr ? 03:31:20 10° WSW 03:35:22 52° NNW 03:39:25 10° NE visible
28 Apr ? 05:12:43 10° WNW 05:16:05 24° N 05:16:12 24° N visible
29 Apr ? 03:20:46 10° W 03:24:43 44° NNW 03:28:40 10° NE visible
29 Apr ? 05:02:11 10° WNW 05:05:30 23° N 05:06:14 22° NNE visible
30 Apr ? 03:10:12 10° W 03:14:03 37° NNW 03:17:54 10° NE visible
30 Apr ? 04:51:38 10° NW 04:54:55 22° N 04:56:09 20° NNE visible
01 May ? 02:59:41 10° W 03:03:25 32° NNW 03:07:10 10° NE visible
01 May ? 04:41:03 10° NW 04:44:20 22° N 04:45:56 18° NE visible
02 May ? 04:30:25 10° NW 04:33:45 23° N 04:35:40 17° NE visible
02 May ? 06:10:34 10° NW 06:10:58 12° NW 06:10:58 12° NW visible
